Galesburg, IL

11:40 AM CDT on March 25, 2017 (GMT -0500)
Galesburg Municipal

Weather History for KGBG - September, 2012

Change the Weather History Date:

Thursday, September 20, 2012

  Actual Average Record
Temperature  
Mean Temperature 56 °F -  
Max Temperature 70 °F 73 °F 89 °F (2007)
Min Temperature 43 °F 53 °F 32 °F (1991)
Degree Days  
Heating Degree Days 8    
Growing Degree Days 6 (Base 50)    
Moisture  
Dew Point 40 °F    
Average Humidity 56    
Maximum Humidity 91    
Minimum Humidity 23    
Precipitation  
Precipitation 0.00 in - - ()
Sea Level Pressure  
Sea Level Pressure 29.94 in    
Wind  
Wind Speed 6 mph (West)    
Max Wind Speed 18 mph    
Max Gust Speed 24 mph    
Visibility 10 miles    
Events      
Averages and records for this station are not official NWS values.
T = Trace of Precipitation, MM = Missing Value Source: NWS Daily Summary

Daily Weather History Graph

Daily Weather History Graph

Search for Another Location

Airport or City:

Trip Planner

Search our weather history database for the weather conditions in past years. The results will help you decide how hot, cold, wet, or windy it might be!

Date:

Astronomy

Sep. 20, 2012 Rise Set
Actual Time 6:47 AM CDT 7:01 PM CDT
Civil Twilight 6:20 AM CDT 7:28 PM CDT
Nautical Twilight 5:48 AM CDT 8:00 PM CDT
Astronomical Twilight 5:15 AM CDT 8:33 PM CDT
Moon 12:08 PM CDT (9/20) 10:00 PM CDT (9/20)
Length of Visible Light 13h 08m
Length of Day
12h 13m
Waxing Crescent, 27% of the Moon is Illuminated
Sep 20
Waxing Crescent
Sep 22
First Quarter
Sep 29
Full
Oct 8
Last Quarter
Oct 15
New

Hourly Weather History & Observations

Time (CDT) Temp. Windchill Dew Point Humidity Pressure Visibility Wind Dir Wind Speed Gust Speed Precip Events Conditions
12:15 AM 62.8 °F - 52.2 °F 68% 29.89 in 10.0 mi WSW 6.9 mph - N/A   Scattered Clouds
12:35 AM 62.6 °F - 52.3 °F 69% 29.89 in 10.0 mi West 8.1 mph - N/A   Mostly Cloudy
12:55 AM 60.4 °F - 52.0 °F 74% 29.90 in 10.0 mi West 8.1 mph - N/A   Mostly Cloudy
1:15 AM 59.4 °F - 51.8 °F 76% 29.90 in 10.0 mi WNW 6.9 mph - N/A   Mostly Cloudy
1:35 AM 58.3 °F - 51.1 °F 77% 29.90 in 10.0 mi NW 3.5 mph - N/A   Overcast
1:55 AM 57.2 °F - 49.3 °F 75% 29.91 in 10.0 mi NW 3.5 mph - N/A   Overcast
2:15 AM 55.9 °F - 47.8 °F 74% 29.91 in 10.0 mi NW 3.5 mph - N/A   Scattered Clouds
2:35 AM 54.3 °F - 45.9 °F 73% 29.91 in 10.0 mi NW 4.6 mph - N/A   Clear
2:55 AM 52.7 °F - 44.6 °F 74% 29.90 in 10.0 mi WNW 3.5 mph - N/A   Clear
3:15 AM 49.8 °F - 44.4 °F 82% 29.91 in 10.0 mi WNW 4.6 mph - N/A   Clear
3:35 AM 50.0 °F - 43.2 °F 77% 29.91 in 10.0 mi WNW 5.8 mph - N/A   Clear
3:55 AM 50.5 °F - 42.8 °F 75% 29.91 in 10.0 mi WNW 4.6 mph - N/A   Clear
4:15 AM 49.1 °F - 42.3 °F 77% 29.91 in 10.0 mi WNW 4.6 mph - N/A   Clear
4:35 AM 48.9 °F - 42.3 °F 78% 29.91 in 10.0 mi WNW 4.6 mph - N/A   Clear
4:55 AM 46.4 °F - 42.8 °F 87% 29.91 in 10.0 mi Calm Calm - N/A   Clear
5:15 AM 47.5 °F - 41.9 °F 81% 29.91 in 10.0 mi Calm Calm - N/A   Clear
5:35 AM 47.1 °F - 41.7 °F 81% 29.91 in 10.0 mi Calm Calm - N/A   Clear
5:55 AM 45.1 °F - 41.4 °F 87% 29.92 in 10.0 mi Calm Calm - N/A   Clear
6:15 AM 45.1 °F - 41.9 °F 88% 29.93 in 10.0 mi Calm Calm - N/A   Clear
6:35 AM 44.4 °F - 41.4 °F 89% 29.94 in 10.0 mi Calm Calm - N/A   Clear
6:55 AM 44.2 °F - 41.9 °F 91% 29.94 in 10.0 mi Calm Calm - N/A   Clear
7:15 AM 43.9 °F 40.5 °F 40.3 °F 87% 29.94 in 10.0 mi West 5.8 mph - N/A   Clear
7:35 AM 47.8 °F - 42.1 °F 80% 29.95 in 10.0 mi West 5.8 mph - N/A   Clear
7:55 AM 50.0 °F - 44.6 °F 82% 29.95 in 10.0 mi West 3.5 mph - N/A   Clear
8:15 AM 52.2 °F - 45.7 °F 79% 29.95 in 10.0 mi West 4.6 mph - N/A   Clear
8:35 AM 55.8 °F - 46.2 °F 70% 29.96 in 10.0 mi WNW 5.8 mph - N/A   Clear
8:55 AM 58.3 °F - 45.1 °F 62% 29.96 in 10.0 mi WNW 4.6 mph - N/A   Clear
9:15 AM 59.9 °F - 44.2 °F 56% 29.96 in 10.0 mi WNW 4.6 mph - N/A   Clear
9:35 AM 61.7 °F - 41.7 °F 48% 29.96 in 10.0 mi WNW 8.1 mph - N/A   Clear
9:55 AM 63.5 °F - 41.7 °F 45% 29.96 in 10.0 mi WNW 5.8 mph - N/A   Clear
10:15 AM 64.9 °F - 40.5 °F 41% 29.96 in 10.0 mi WNW 8.1 mph - N/A   Clear
10:35 AM 66.4 °F - 38.8 °F 36% 29.95 in 10.0 mi WNW 10.4 mph 16.1 mph N/A   Clear
10:55 AM 67.1 °F - 38.8 °F 35% 29.96 in 10.0 mi NW 11.5 mph 17.3 mph N/A   Clear
11:15 AM 67.5 °F - 37.0 °F 33% 29.95 in 10.0 mi WNW 11.5 mph 17.3 mph N/A   Clear
11:35 AM 67.8 °F - 35.6 °F 30% 29.95 in 10.0 mi West 15.0 mph 20.7 mph N/A   Clear
11:55 AM 68.4 °F - 34.3 °F 28% 29.95 in 10.0 mi West 16.1 mph 19.6 mph N/A   Clear
12:15 PM 68.9 °F - 33.4 °F 27% 29.95 in 10.0 mi WNW 16.1 mph 24.2 mph N/A   Clear
12:35 PM 68.0 °F - 35.2 °F 30% 29.95 in 10.0 mi WNW 13.8 mph 19.6 mph N/A   Scattered Clouds
12:55 PM 68.7 °F - 29.3 °F 23% 29.95 in 10.0 mi WNW 12.7 mph 24.2 mph N/A   Mostly Cloudy
1:15 PM 68.7 °F - 33.1 °F 27% 29.95 in 10.0 mi WNW 13.8 mph 20.7 mph N/A   Mostly Cloudy
1:35 PM 70.0 °F - 32.7 °F 25% 29.95 in 10.0 mi West 18.4 mph 24.2 mph N/A   Scattered Clouds
1:55 PM 68.2 °F - 31.6 °F 26% 29.94 in 10.0 mi NW 13.8 mph 19.6 mph N/A   Clear
2:15 PM 69.6 °F - 34.0 °F 27% 29.94 in 10.0 mi West 13.8 mph 18.4 mph N/A   Clear
2:35 PM 69.1 °F - 33.4 °F 27% 29.94 in 10.0 mi WNW 12.7 mph - N/A   Clear
2:55 PM 68.0 °F - 33.3 °F 28% 29.94 in 10.0 mi West 13.8 mph 18.4 mph N/A   Clear
3:15 PM 67.5 °F - 32.9 °F 28% 29.94 in 10.0 mi West 12.7 mph - N/A   Clear
3:35 PM 67.5 °F - 34.2 °F 29% 29.94 in 10.0 mi West 11.5 mph - N/A   Clear
3:55 PM 69.1 °F - 33.6 °F 27% 29.94 in 10.0 mi WSW 10.4 mph - N/A   Clear
4:15 PM 68.2 °F - 32.0 °F 26% 29.94 in 10.0 mi West 13.8 mph 20.7 mph N/A   Clear
4:35 PM 68.4 °F - 32.4 °F 26% 29.93 in 10.0 mi West 13.8 mph 21.9 mph N/A   Clear
4:55 PM 67.8 °F - 31.6 °F 26% 29.94 in 10.0 mi West 11.5 mph 19.6 mph N/A   Clear
5:15 PM 68.9 °F - 31.8 °F 25% 29.93 in 10.0 mi West 10.4 mph 17.3 mph N/A   Clear
5:35 PM 68.0 °F - 32.7 °F 27% 29.94 in 10.0 mi WNW 12.7 mph 17.3 mph N/A   Clear
5:55 PM 66.2 °F - 32.5 °F 29% 29.93 in 10.0 mi WNW 8.1 mph - N/A   Clear
6:15 PM 64.4 °F - 32.4 °F 30% 29.94 in 10.0 mi WNW 6.9 mph - N/A   Clear
6:35 PM 62.4 °F - 35.4 °F 37% 29.94 in 10.0 mi WNW 4.6 mph - N/A   Clear
6:55 PM 60.6 °F - 35.6 °F 39% 29.95 in 10.0 mi West 3.5 mph - N/A   Clear
7:15 PM 58.5 °F - 35.6 °F 42% 29.95 in 10.0 mi West 4.6 mph - N/A   Clear
7:35 PM 56.7 °F - 36.3 °F 47% 29.95 in 10.0 mi West 3.5 mph - N/A   Clear
7:55 PM 54.7 °F - 37.6 °F 53% 29.96 in 10.0 mi Calm Calm - N/A   Clear
8:15 PM 52.7 °F - 39.2 °F 60% 29.96 in 10.0 mi Calm Calm - N/A   Clear
8:35 PM 51.4 °F - 41.0 °F 68% 29.96 in 10.0 mi Calm Calm - N/A   Clear
8:55 PM 49.8 °F - 41.5 °F 73% 29.96 in 10.0 mi Calm Calm - N/A   Clear
9:15 PM 49.1 °F - 42.4 °F 78% 29.96 in 10.0 mi Calm Calm - N/A   Clear
9:35 PM 48.2 °F - 43.7 °F 84% 29.96 in 10.0 mi SSW 3.5 mph - N/A   Clear
9:55 PM 48.2 °F - 43.5 °F 84% 29.97 in 10.0 mi Calm Calm - N/A   Clear
10:15 PM 48.4 °F - 44.6 °F 87% 29.97 in 10.0 mi Calm Calm - N/A   Clear
10:35 PM 49.3 °F - 42.3 °F 77% 29.97 in 10.0 mi SSW 3.5 mph - N/A   Clear
10:55 PM 52.0 °F - 39.2 °F 62% 29.97 in 10.0 mi SSW 3.5 mph - N/A   Clear
11:15 PM 50.7 °F - 39.6 °F 66% 29.97 in 10.0 mi SSW 4.6 mph - N/A   Clear
11:35 PM 51.4 °F - 39.2 °F 63% 29.97 in 10.0 mi SSW 4.6 mph - N/A   Clear
11:55 PM 51.1 °F - 39.2 °F 64% 29.97 in 10.0 mi SSW 4.6 mph - N/A   Clear